OBJECT J, 66003

Orbit data source: Space-Track

You're viewing an Uncataloged Satellite

Recently launched and/or uncataloged satellites may have evolving metadata. Metadata may include but not limited to: Owner, Maufacturer, Bus, Motor, and Mission.

OBJECT J, 66003 is a satellite owned by Zhongguo Xingwang (CN) in LEO that was launched on Thu, 16 Oct 2025 UTC via a CHANG ZHENG 8A launch vehicle from the Wenchang Satellite Launch Center (WSC). Unknown objects in Earth's orbit typically refer to objects detected orbiting the Earth but have not yet been identified or cataloged. These objects could be anything from previously untracked satellites, spent rocket stages, debris from satellite collisions, or even natural meteoroids temporarily captured by Earth's gravity.

Loading next visibility...
Identifier
66003, 2025-231J
Orbit
LEO
Country
Flag of CNCN / PRC
Related business
Manufacturer
CAST
Mission
Operational spacecraft
Bus & Motor
GUOWANG C, Unknown motor
Mass
~800 kg wet, ~800 kg dry
Launch date (UTC)
2025-10-16 (2 months ago)
Launch vehicle
CHANG ZHENG 8A
Launch site
Wenchang Satellite Launch Center (WSC)
Object type
Unknown
Shape & HBR
Unknown shape, 1.1 m
Radar Cross Section
RCS unknown

Expand to show TLE details & history
Last TLE update: 3 days ago

TLE from 3 days ago
0 OBJECT J
1 66003U 25231J   25338.76449584 -.00000019  00000-0  12828-3 0  9991
2 66003  50.0049 157.7828 0008896 226.9955 133.0191 13.74019286  6951
Epoch: 2025-12-04T18:20Z
TLE epoch observation values (Epoch: 2025-12-04T18:20:52.440Z)
Latitude
-0.00007°
Longitude
168.74798°
Altitude
990.166 km
Speed
7.356 km/s
True Right ascension
10h 31m 07s
True Declination
0° 00' 00"
Sunlit
Object was in daylight at epoch
Visualization orbit readout
Latitude
Unknown
Longitude
Unknown
Altitude
Unknown
Speed
Unknown
Apparent Right ascension
Unknown
Apparent Declination
Unknown
Sunlit
N/A
Visualization observer readout
Local Sidereal Time
12:45:16
Azimuth
Unknown
Elevation
Unknown
Doppler factor
Unknown
Orbital elements
Apogee altitude
992.448 km
Perigee altitude
979.346 km
Semi-major axis
7,364.034 km
Eccentricity
0.00089
Inclination
50.0049°
RAAN
157.7828°
Arg. of periapsis
226.9955°
True anomaly
133.09357°
Mean anomaly
133.0191°
Eccentric anomaly
133.05634°
Mean motion
3.43455 °/min
Orbital period
104.82 mins
BSTAR
0.00012828
Loading maneuver chart data...
Computing Atmospheric mass density...
Loading historical data...
Loading historical data...
Loading historical data...
Loading historical data...
Loading historical data...
Loading historical data...
Loading historical data...

Documentation

Showing up to 5 results
|